Weather History for Lansing, MI

Change the Weather History Date:

Thursday, January 9, 2014

  Actual Average Record
Temperature  
Mean Temperature 12 °F 24 °F  
Max Temperature 21 °F 30 °F 56 °F (1939)
Min Temperature 2 °F 17 °F -17 °F (1977)
Degree Days  
Heating Degree Days 53 41  
Month to date heating degree days 505 369  
Since 1 July heating degree days 3168 2921  
Cooling Degree Days 0 0  
Month to date cooling degree days 0 0  
Year to date cooling degree days 0 0  
Moisture  
Dew Point 8 °F    
Average Humidity 75    
Maximum Humidity 88    
Minimum Humidity 62    
Precipitation  
Precipitation 0.01 in 0.06 in 0.70 in (1889)
Month to date precipitation 1.08 0.54  
Year to date precipitation 1.08 0.54  
Snow  
Snow 0.20 in 0.50 in 8.20 in (1930)
Month to date snowfall 15.5 4.1  
Since 1 July snowfall 32.0 20.9  
Snow Depth 15.00 in    
Sea Level Pressure  
Sea Level Pressure 30.46 in    
Wind  
Wind Speed 6 mph (SSE)    
Max Wind Speed 14 mph    
Max Gust Speed 17 mph    
Visibility 7 miles    
Events Snow    
T = Trace of Precipitation, MM = Missing Value Source: NWS Daily Summary

Daily Weather History Graph

Daily Weather History Graph

Search for Another Location

Airport:

Trip Planner

Search our weather history database for the weather conditions in past years. The results will help you decide how hot, cold, wet, or windy it might be!

Date:

Astronomy

Jan. 09, 2014 Rise Set
Actual Time 8:08 AM EST 5:23 PM EST
Civil Twilight 7:36 AM EST 5:54 PM EST
Nautical Twilight 7:01 AM EST 6:29 PM EST
Astronomical Twilight 6:27 AM EST 7:04 PM EST
Moon 12:52 PM EST (1/9) 2:11 AM EST (1/9)
Length of Visible Light 10h 18m
Length of Day
9h 14m
Waxing Gibbous, 66% of the Moon is Illuminated
Jan 9
Waxing Gibbous
Jan 15
Full
Jan 24
Last Quarter
Jan 30
New
Feb 6
First Quarter

Hourly Weather History & Observations

Time (EST) Temp. Windchill Dew Point Humidity Pressure Visibility Wind Dir Wind Speed Gust Speed Precip Events Conditions
12:53 AM 8.1 °F - 3.9 °F 83% 30.54 in 10.0 mi Calm Calm - N/A   Overcast
1:53 AM 5.0 °F - 1.9 °F 87% 30.56 in 10.0 mi Calm Calm - N/A   Overcast
2:53 AM 6.1 °F - 1.9 °F 83% 30.58 in 9.0 mi Calm Calm - N/A   Overcast
3:53 AM 3.9 °F -3.4 °F -0.0 °F 84% 30.58 in 7.0 mi ENE 3.5 mph - N/A   Overcast
4:53 AM 5.0 °F - 1.0 °F 84% 30.58 in 9.0 mi Calm Calm - N/A   Overcast
5:14 AM 3.2 °F - -0.4 °F 85% 30.53 in 8.0 mi Calm Calm - N/A   Overcast
5:53 AM 5.0 °F -4.1 °F 1.0 °F 84% 30.59 in 7.0 mi East 4.6 mph - N/A   Overcast
6:53 AM 5.0 °F - 1.0 °F 84% 30.58 in 9.0 mi Calm Calm - 0.00 in   Overcast
7:53 AM 6.1 °F - 1.0 °F 80% 30.58 in 6.0 mi Calm Calm - 0.00 in   Haze
8:53 AM 7.0 °F -6.6 °F 3.9 °F 87% 30.60 in 4.0 mi SE 9.2 mph - N/A   Overcast
9:48 AM 6.8 °F -8.6 °F 3.2 °F 85% 30.55 in 2.0 mi South 11.5 mph - 0.00 in Snow Light Snow
9:53 AM 7.0 °F -7.5 °F 3.9 °F 87% 30.61 in 2.5 mi South 10.4 mph - 0.00 in Snow Light Snow
10:12 AM 6.8 °F -5.9 °F 3.2 °F 85% 30.55 in 4.0 mi South 8.1 mph - 0.00 in   Overcast
10:53 AM 8.1 °F -3.2 °F 3.9 °F 83% 30.60 in 7.0 mi SE 6.9 mph - 0.00 in   Overcast
11:39 AM 8.6 °F -2.6 °F 3.2 °F 79% 30.51 in 10.0 mi SE 6.9 mph - N/A   Scattered Clouds
11:53 AM 10.0 °F -1.9 °F 5.0 °F 80% 30.56 in 10.0 mi South 8.1 mph - N/A   Clear
12:25 PM 10.4 °F 0.8 °F 6.8 °F 85% 30.47 in 6.0 mi SE 5.8 mph - 0.00 in Snow Light Snow
12:53 PM 12.0 °F 0.5 °F 6.1 °F 77% 30.51 in 10.0 mi ESE 8.1 mph - 0.00 in   Clear
1:53 PM 15.1 °F 6.4 °F 7.0 °F 70% 30.47 in 10.0 mi SE 5.8 mph - N/A   Clear
2:53 PM 16.0 °F 7.4 °F 7.0 °F 68% 30.45 in 10.0 mi SE 5.8 mph - N/A   Overcast
3:53 PM 18.0 °F 7.7 °F 8.1 °F 65% 30.46 in 10.0 mi SSE 8.1 mph - N/A   Overcast
4:02 PM 17.6 °F 7.3 °F 8.6 °F 68% 30.40 in 10.0 mi SSE 8.1 mph - N/A   Overcast
4:53 PM 19.0 °F 10.0 °F 9.0 °F 65% 30.44 in 10.0 mi SE 6.9 mph - N/A   Overcast
6:53 PM 18.0 °F 4.8 °F 12.0 °F 78% 30.40 in 9.0 mi SE 12.7 mph - 0.00 in   Overcast
7:21 PM 17.6 °F 5.0 °F 12.2 °F 79% 30.34 in 2.5 mi SSE 11.5 mph - 0.00 in Snow Light Snow
7:31 PM 17.6 °F 5.0 °F 12.2 °F 79% 30.34 in 4.0 mi SSE 11.5 mph - 0.00 in Snow Light Snow
7:53 PM 18.0 °F 6.9 °F 14.0 °F 84% 30.40 in 4.0 mi SSE 9.2 mph - 0.00 in Snow Light Snow
8:03 PM 17.6 °F 5.7 °F 14.0 °F 86% 30.33 in 2.5 mi SSE 10.4 mph - 0.00 in Snow Light Snow
8:40 PM 17.6 °F 6.4 °F 14.0 °F 86% 30.31 in 3.0 mi SSE 9.2 mph - 0.00 in Snow Light Snow
8:50 PM 19.4 °F 7.2 °F 14.0 °F 80% 30.31 in 2.5 mi SSE 11.5 mph - 0.00 in Snow Light Snow
8:53 PM 19.0 °F 7.5 °F 14.0 °F 81% 30.36 in 2.5 mi SSE 10.4 mph - 0.00 in Snow Light Snow
9:02 PM 19.4 °F 8.6 °F 15.8 °F 86% 30.30 in 4.0 mi SE 9.2 mph - 0.01 in   Overcast
9:29 PM 19.4 °F 8.6 °F 15.8 °F 86% 30.29 in 7.0 mi SSE 9.2 mph - 0.01 in   Overcast
9:53 PM 19.9 °F 9.3 °F 15.1 °F 81% 30.34 in 6.0 mi SSE 9.2 mph - 0.01 in   Haze
10:14 PM 19.4 °F 7.9 °F 15.8 °F 86% 30.28 in 7.0 mi SSE 10.4 mph - N/A   Overcast
10:53 PM 19.9 °F 9.3 °F 17.1 °F 89% 30.32 in 4.0 mi SSE 9.2 mph - 0.00 in Snow Light Snow
11:05 PM 19.4 °F 7.9 °F 17.6 °F 93% 30.27 in 2.5 mi SSE 10.4 mph - 0.00 in Snow Light Snow
11:53 PM 21.0 °F 9.9 °F 18.0 °F 88% 30.29 in 2.5 mi SSE 10.4 mph - 0.01 in Snow Light Snow